Flag for U.S.A. Weather past 2 weeks in Stockton, California, U.S.A.

Now
58 °F

Fog.


Feels Like: 58 °F
Forecast: 55 / 62 °F
Wind: 3 mph from East

Location: Stockton Metropolitan Airport

Current Time: Dec 21, 2014 at 9:32:27 AM

Latest Report: Dec 21, 2014 at 8:55 AM


Visibility: 6 mi

Pressure: 30.29 "Hg

Humidity: 90%

Dew point: 55 °F

Location of StocktonLocation

Historic Weather in Stockton — Graph

°F

Stockton temperature yesterday

Maximum temperature yesterday: 58 °F (at 2:55 PM)
Minimum temperature yesterday: 52 °F (at 7:04 AM)
Average temperature yesterday: 55 °F

Past Weeks' High & Low Weather Summary

 TemperatureHumidityPressure
High70 °F (Dec 6, 1:55 PM)100% (Dec 7, 4:55 AM)30.26 "Hg (Dec 7, 4:55 AM)
Low42 °F (Dec 13, 11:55 PM)56% (Dec 11, 9:55 AM)29.58 "Hg (Dec 11, 6:55 AM)
Average53 °F90%30.05 "Hg
* Reported Dec 6 7:55 AM — Dec 21 7:55 AM, Stockton, Weather by CustomWeather, © 2014

Note: Actual official high and low records may vary slightly from our data, if they occured in-between our weather recording intervals... More about our weather records

Advertising

Stockton weather history for previous 24 hours

 ConditionsComfort  
Time TempWeatherWind HumidityBarometerVisibility
7:55 AM
Dec 21
56 °FFog.3 mph93%30.26 "Hg5 mi
6:55 AM56 °FFog.3 mph93%30.26 "Hg5 mi
5:55 AM56 °FFog.3 mph93%30.26 "Hg5 mi
4:55 AM56 °FFog.No wind90%30.24 "Hg4 mi
3:55 AM55 °FFog.No wind93%30.24 "Hg5 mi
2:55 AM57 °FOvercast.No wind87%30.25 "Hg7 mi
1:55 AM56 °FFog.No wind93%30.25 "Hg4 mi
12:55 AM56 °FFog.No wind93%30.23 "Hg3 mi
11:55 PM
Dec 20
56 °FFog.3 mph93%30.24 "Hg4 mi
10:55 PM56 °FFog.3 mph93%30.25 "Hg4 mi
9:55 PM56 °FFog.5 mph93%30.24 "Hg5 mi
8:55 PM56 °FFog.5 mph90%30.24 "Hg6 mi
7:55 PM56 °FFog.3 mph90%30.23 "Hg6 mi
6:55 PM56 °FFog.No wind90%30.22 "Hg6 mi
5:55 PM56 °FMostly cloudy.No wind90%30.22 "Hg8 mi
4:55 PM57 °FMostly cloudy.No wind87%30.21 "Hg8 mi
3:55 PM58 °FMostly cloudy.5 mph84%30.20 "Hg7 mi
2:55 PM58 °FOvercast.5 mph84%30.19 "Hg6 mi
1:56 PM57 °FMostly cloudy.5 mph88%30.18 "Hg6 mi
12:55 PM57 °FLow clouds.3 mph87%30.19 "Hg7 mi
11:55 AM56 °FLow clouds.7 mph90%30.19 "Hg9 mi
10:55 AM55 °FLow clouds.6 mph90%30.22 "Hg10 mi
9:55 AM54 °FPartly sunny.7 mph93%30.22 "Hg10 mi
Weather by CustomWeather, © 2014

See weather overviewHow to use our weather pages